STARLINK-33891, 63827

Orbit data source: Space-Track

STARLINK-33891, 63827 is a payload satellite owned by SpaceX/Seattle (US) in LEO that was launched on Sun, 04 May 2025 UTC via an FALCON 9 launch vehicle from the Air Force Eastern Test Range (AFETR). Payload-class satellites include a variety of spacecraft equipped with specific instruments for various scientific and technological missions. These include communications satellites like Starlink; space stations such as the ISS; scientific satellites like the Hubble; Earth observation satellites from companies like Planet Labs, Umbra, and HawkEye 360; GPS; miniature CubeSats for education and research; and military/defense satellites.

Loading next visibility...
Identifier
63827, 2025-092Z
Orbit
LEO
Country
Flag of USUS
Related business
Manufacturer
SpaceX/Seattle
Mission
Operational Commercial Communications
Bus & Motor
STARLINK V2MO, Unknown motor
Mass
575 kg wet, ~530 kg dry
Launch date (UTC)
2025-05-04 (9 months ago)
Launch vehicle
FALCON 9
Launch site
Air Force Eastern Test Range (AFETR)
Object type
Payload
Rocket body
Debris
Shape & HBR
Box + 2 Pan, 17.7 m
Radar Cross Section
36.964 m², Large (>1 m²)

Expand to show TLE details & history
Last TLE update: 22 hours ago

TLE from 22 hours ago
0 STARLINK-33891
1 63827U 25092Z   26034.25385270  .00045501  00000-0  16509-2 0  9999
2 63827  43.0029   7.3994 0001847 268.8625  91.2015 15.27617985 43281
Epoch: 2026-02-03T06:05Z
TLE epoch observation values (Epoch: 2026-02-03T06:05:32.873Z)
Latitude
-0.00002°
Longitude
142.57498°
Altitude
482.738 km
Speed
7.626 km/s
True Right ascension
00h 29m 35s
True Declination
0° 00' 00"
Sunlit
Object was in daylight at epoch
Visualization orbit readout
Latitude
Unknown
Longitude
Unknown
Altitude
Unknown
Speed
Unknown
Apparent Right ascension
Unknown
Apparent Declination
Unknown
Sunlit
N/A
Visualization observer readout
Local Sidereal Time
05:39:58
Azimuth
Unknown
Elevation
Unknown
Doppler factor
Unknown
Orbital elements
Apogee altitude
486.148 km
Perigee altitude
483.612 km
Semi-major axis
6,863.017 km
Eccentricity
0.00018
Inclination
43.0029°
RAAN
7.3994°
Arg. of periapsis
268.8625°
True anomaly
91.22266°
Mean anomaly
91.2015°
Eccentric anomaly
91.21208°
Mean motion
3.81743 °/min
Orbital period
94.3 mins
BSTAR
0.0016509
Loading maneuver chart data...
Computing Atmospheric mass density...
Loading historical data...
Loading historical data...
Loading historical data...
Loading historical data...
Loading historical data...
Loading historical data...
Loading historical data...

Documentation

Showing up to 5 results
|